Regional Weather Roundup
Issued by NWS

Home | Current Version | Previous Version | Text Only | Print | Product List | Glossary Off
Versions: 1 2 3 4 5 6 7 8 9 10 11 12 13 14 15 16 17 18 19 20 21 22 23 24 25 26 27 28 29 30 31 32 33 34 35 36 37 38 39 40 41 42 43 44 45 46 47 48 49 50

000
ASUS43 KMPX 212210
RWRMN
WEATHER ROUNDUP FOR MINNESOTA
NATIONAL WEATHER SERVICE TWIN CITIES/CHANHASSEN MN
400 PM CST SUN JAN 21 2018


NOTE: "FAIR" INDICATES FEW OR NO CLOUDS BELOW 12,000 FEET WITH NO
SIGNIFICANT WEATHER AND/OR OBSTRUCTIONS TO VISIBILITY. N/A MEANS
CURRENT SKY AND/OR WEATHER CONDITIONS ARE NOT AVAILABLE.

MNZ060>063-068>070-212300-
   Twin Cities Metro

CITY           SKY/WX    TMP DP  RH WIND       PRES   REMARKS
TWIN CITIES    CLOUDY    37  30  75 N9        29.95S
ST PAUL        CLOUDY    37  29  72 N5        29.96S
CRYSTAL        CLOUDY    37  26  64 N7        29.94S
BLAINE         CLOUDY    37  30  75 N8        29.95S
LAKEVILLE      CLOUDY    37  30  75 N10       29.93R
EDEN PRAIRIE   CLOUDY    38  28  67 N9        29.93R
SOUTH ST PAUL  CLOUDY    38  29  72 N7        29.94S
LAKE ELMO      CLOUDY    36  30  80 N6        29.96S
$$
MNZ001>005-007-008-013>017-022>024-027-028-212300-
   Northwest Minnesota

CITY           SKY/WX    TMP DP  RH WIND       PRES   REMARKS
BEMIDJI        CLOUDY    24  24  97 N3        30.03R FOG
HALLOCK        CLOUDY    23  21  93 N6        30.09S WCI  16
ROSEAU         CLOUDY    27  21  80 CALM      30.07S
WARROAD        CLOUDY    27  21  80 CALM      30.07F
THIEF RVR FALL CLOUDY    24  23  96 N6        30.07R WCI  17
CROOKSTON      FAIR      25  25 100 N3        30.10R
FOSSTON        CLOUDY    21  21 100 N7        30.05S FOG     WCI  13
DETROIT LAKES  CLOUDY    28  28 100 N8        30.02S WCI  20
MOORHEAD       CLOUDY    28  25  86 N12       30.06S WCI  18
PARK RAPIDS    CLOUDY    27  23  85 N9        30.00S WCI  18
MAHNOMEN       CLOUDY    24  24  96 N10       30.04R WCI  14
$$
MNZ006-009>011-018-025>026-212300-
   North Central Minnesota

CITY           SKY/WX    TMP DP  RH WIND       PRES   REMARKS
BAUDETTE       CLOUDY    25  24  96 NW6       30.05R WCI  18
FLAG ISLAND    CLOUDY    25  21  86 N5        30.07S WCI  19
INTL FALLS     FOG       26  24  92 CALM      30.04R VSB 1/2
WASKISH        CLOUDY    25  25 100 CALM      30.06R FOG
BIG FORK       CLOUDY    27  27 100 CALM      30.03R FOG
LONGVILLE      CLOUDY    27  23  86 N3        30.02R
GRAND RAPIDS   CLOUDY    28  25  88 N5        30.03R WCI  23
CRANE LAKE     CLOUDY    23  23 100 CALM      30.06S
ORR            CLOUDY    25  23  93 CALM      30.01R
COOK           CLOUDY    25  25 100 CALM      30.03R
WALKER         CLOUDY    25  22  89 N6        30.02R WCI  18
$$
MNZ012-019>021-037-212300-
   Northeast Minnesota

CITY           SKY/WX    TMP DP  RH WIND       PRES   REMARKS
DULUTH         FAIR      34  27  75 N5        29.98R WCI  30
ELY            CLOUDY    25  25 100 CALM      30.02R
HIBBING        FAIR      27  23  85 N9        30.00S WCI  18
EVELETH        MOCLDY    25  22  88 NE7       30.01S WCI  17
DULUTH HARBOR  CLOUDY    30  28  93 NE9       30.03S FOG     WCI  22
TWO HARBORS    HAZE      34  28  80 NE6       30.00R VSB 1/4 WCI  29
SILVER BAY     CLOUDY    28  28 100 NE6       30.01R FOG     WCI  22
GRAND MARAIS     N/A     31  28  89 NE5       30.07R WCI  26
G MARAIS ARPRT CLOUDY    25  21  86 N6        30.01R WCI  18
$$
MNZ029>031-032-039>041-046>048-054>057-064-212300-
   West Central Minnesota

CITY           SKY/WX    TMP DP  RH WIND       PRES   REMARKS
FERGUS FALLS   FAIR      30  27  86 N6        30.01S WCI  24
MORRIS         CLOUDY    34  28  80 NW9       29.99S WCI  26
ALEXANDRIA     CLOUDY    34  28  79 N6        29.98S WCI  29
ELBOW LAKE     FAIR      31  29  90 N7        30.00S WCI  25
WADENA         FAIR      30  25  80 N5        29.99S WCI  25
GLENWOOD       FAIR      34  30  86 N8        29.98S WCI  27
APPLETON       CLOUDY    36  28  75 N9        29.99S
BENSON         CLOUDY    36  30  80 N5        30.00S
ORTONVILLE     CLOUDY    32  27  80 N13       29.99F WCI  22
MADISON        CLOUDY    36  30  80 N14       29.99R
WILLMAR        FAIR      36  30  80 N13       29.98S
$$
MNZ033>034-036-042>043-049>051-058-059-212300-
   Central Minnesota

CITY           SKY/WX    TMP DP  RH WIND       PRES   REMARKS
ST CLOUD       CLOUDY    35  29  78 N6        29.97S WCI  30
SAUK CENTRE      N/A     34  28  80 N6        29.98R WCI  29
PAYNESVILLE    CLOUDY    36  32  84 N8        29.96F
AITKIN         FAIR      32  25  74 N5        29.98S WCI  27
PINE RIVER     FAIR      28  23  80 N6        30.03S WCI  22
BRAINERD       FAIR      33  26  75 N7        30.00R WCI  27
STAPLES        FAIR      30  25  80 N3        29.99S
LONG PRAIRIE   FAIR      32  28  86 NW6       29.98S WCI  26
LITTLE FALLS     N/A    N/A N/A N/A N6          N/A
LITCHFIELD     CLOUDY    37  30  75 N7        29.94F
BUFFALO        CLOUDY    35  29  78 N6        29.96F WCI  30
MAPLE LAKE     CLOUDY    36  31  82 MISG      29.97S
HUTCHINSON     CLOUDY    37  31  81 N10       29.94F
$$
MNZ037-044-045-052-053-212300-
   East Central Minnesota

CITY           SKY/WX    TMP DP  RH WIND       PRES   REMARKS
PRINCETON      MOCLDY    37  28  70 N3        29.97S
MORA           FAIR      36  28  75 CALM      29.99S
CAMBRIDGE        N/A     37  27  65 CALM      29.97S
RUSH CITY      CLOUDY    35  28  76 N5        29.98S WCI  31
MOOSE LAKE     MOCLDY    34  28  80 N5        29.98R WCI  30
HINCKLEY       MOCLDY    36  28  75 N3        29.98S
CLOQUET        FAIR      34  25  69 N3        29.98S
MCGREGOR       FAIR      32  28  86 N6        30.00R WCI  26
$$
MNZ071>073-080-081-089-090-097-098-212300-
   Southwest Minnesota

CITY           SKY/WX    TMP DP  RH WIND       PRES   REMARKS
MONTEVIDEO     CLOUDY    34  30  86 N13       29.98R WCI  25
GRANITE FALLS  CLOUDY    37  32  83 NW12      29.97R
CANBY          CLOUDY    34  32  90 NW13      29.96F WCI  25
MARSHALL       CLOUDY    34  31  88 N9        29.95R WCI  27
REDWOOD FALLS  CLOUDY    37  30  75 N8        29.93F
OLIVIA         CLOUDY    36  32  87 N7        29.94S
PIPESTONE      CLOUDY    34  30  86 NE18G28   29.86F WCI  23
WINDOM         CLOUDY    37  21  52 N15       29.88S
WORTHINGTON    CLOUDY    36  31  82 N20       29.86S
JACKSON        CLOUDY    37  30  75 NE14      29.86S
TRACY          CLOUDY    37  32  83 N15G21    29.91S
SLAYTON        SUNNY     35  30  83 N17G24    29.88F WCI  25
$$
MNZ065>067-074>077-082>085-091>093-212300-
   South Central Minnesota

CITY           SKY/WX    TMP DP  RH WIND       PRES   REMARKS
MANKATO        FAIR      39  31  72 N16       29.90S
NEW ULM        CLEAR     37  28  70 N13       29.91S
ST JAMES       CLOUDY    39  30  70 N10       29.90R
FAIRMONT       CLOUDY    39  32  76 NE13      29.86F
FARIBAULT      FAIR      39  30  70 N14       29.90F
OWATONNA       MOCLDY    37  30  75 NE7       29.90S
WASECA         CLOUDY    36  30  80 NE12      29.90F
ALBERT LEA     CLOUDY    37  30  75 NE9       29.87S
$$
MNZ078>079-086>088-094>096-212300-
   Southeast Minnesota

CITY           SKY/WX    TMP DP  RH WIND       PRES   REMARKS
ROCHESTER      CLOUDY    37  31  78 NE8       29.89R
RED WING       CLOUDY    41  27  56 N5        29.92R
STANTON        FAIR      39  31  74 N13       29.91S
DODGE CENTER   CLOUDY    37  30  75 N7        29.89S
WINONA         CLOUDY    37  32  81 CALM      29.89S
AUSTIN         CLOUDY    37  30  75 NE9       29.88R
PRESTON        CLOUDY    36  31  82 N7        29.88S
$$
ABBREVIATIONS USED IN REMARKS
   TC - TEMPERATURES IN CELSIUS
  WCI - WIND CHILL INDEX
   HX - HEAT INDEX
  VSB - VISIBILITY
$$



USA.gov is the U.S. government's official web portal to all federal, state and local government web resources and services.